Wind_Speed
23 23 21 21 20 20 20 20 19 18 18 17 16 15 15 15 14 15 15 15 14 15 15 15 15 15 15 15 14 14 15 15 15 15 16 15 13 14 14 14 16 17 18 18 18 17 17 19 20 21 20 19 20 21 22 22 22 21 21 21 21 22 21 20 21 26 28 26 23 22 23 24 25 23 21 21 22 22 22 20 20 21 22 22 22
21 22 22 23 24 23 21 21 22 20 18 17 17 15 13 14 16 16 15 16 15 15 15 15 15 15 15 16 16 15 15 16 16 17 18 17 15 15 15 15 15 17 18 19 18 18 18 18 19 19 19 19 19 19 20 20 20 19 19 18 19 20 19 20 22 25 27 25 24 25 24 24 24 23 20 19 19 20 21 21 20 20 20 20 20
19 21 22 23 25 25 22 21 22 21 20 18 17 16 15 17 18 17 16 15 14 16 15 13 15 16 16 16 15 14 15 15 16 17 18 18 17 17 17 16 15 15 17 18 18 17 18 18 18 18 18 19 19 19 19 20 20 20 20 19 19 20 19 20 22 24 25 26 25 25 24 21 20 19 17 17 17 19 20 20 20 20 20 20 19
19 19 21 23 25 25 23 22 22 23 22 20 18 19 20 21 20 19 19 17 15 16 16 14 16 17 17 17 17 15 16 16 15 16 17 17 17 17 17 17 17 17 18 19 19 18 18 18 18 18 18 19 19 19 19 21 20 20 20 20 19 19 19 20 21 22 24 24 24 22 20 17 16 16 16 16 16 18 19 20 20 19 19 19 19
21 21 22 22 24 26 25 25 26 26 25 23 23 24 24 23 21 20 20 19 18 18 18 17 19 19 17 18 19 19 18 17 17 17 18 18 18 17 18 18 19 20 20 20 21 20 20 19 19 19 19 19 19 18 18 19 19 18 18 18 18 18 19 19 19 19 19 20 20 19 16 16 15 14 15 17 18 18 17 17 17 17 18 19 19
24 23 21 21 23 24 24 26 28 28 28 29 29 27 26 25 24 22 21 21 20 19 19 20 20 19 18 17 17 16 16 16 18 19 19 18 17 18 19 19 20 20 20 20 20 20 18 17 17 17 16 16 16 15 16 17 17 17 17 17 17 17 17 17 17 16 16 16 16 15 14 15 14 13 14 17 18 17 16 15 16 16 17 18 18
24 22 20 20 22 22 24 27 28 28 30 31 30 27 28 27 25 23 23 23 21 20 20 20 19 19 18 17 15 13 13 15 17 18 18 17 17 18 18 19 19 18 17 19 18 16 15 14 13 13 12 12 13 13 14 15 16 16 16 16 16 16 16 16 16 15 15 15 14 14 14 14 15 14 14 15 16 15 16 16 16 14 14 15 16
24 22 21 22 23 23 25 27 28 29 29 29 28 28 29 29 25 23 22 22 21 20 20 19 19 19 18 16 14 12 13 15 16 17 18 17 16 17 16 16 16 14 14 15 14 13 12 11 10 10 11 11 12 12 12 14 15 15 14 15 15 15 15 15 15 15 15 14 14 13 13 13 13 13 13 14 14 14 15 16 16 15 14 14 13
26 24 23 23 24 24 25 26 27 27 26 26 27 27 28 27 25 22 22 22 20 19 18 17 17 16 15 14 12 11 12 14 15 16 16 15 13 13 12 11 12 11 11 10 10 10 9 9 9 9 11 11 11 11 11 12 13 13 13 13 14 13 13 13 14 15 14 14 13 13 13 14 13 13 13 12 13 14 14 15 15 14 14 13 10
25 24 22 23 24 25 26 26 26 25 25 24 25 25 26 25 22 20 20 20 18 17 16 15 14 13 13 12 12 10 11 12 12 12 12 11 11 9 7 7 8 8 8 7 7 7 7 8 8 9 11 11 10 11 11 11 11 11 11 12 13 13 12 12 12 12 12 13 13 12 13 13 13 14 13 11 11 12 13 13 13 12 12 11 9
23 23 23 24 26 26 26 26 24 24 24 23 22 22 22 20 18 15 15 16 17 16 14 13 12 11 11 11 11 10 9 8 7 8 8 8 7 6 4 4 5 5 5 6 6 6 7 8 8 9 9 10 10 10 10 10 10 10 10 11 11 12 12 12 11 10 10 11 11 11 11 11 11 12 12 11 10 11 11 12 12 11 11 12 12
22 24 25 27 29 29 27 26 24 23 23 22 20 18 16 14 13 12 13 15 15 13 11 11 10 10 10 10 10 9 7 5 5 6 6 4 4 4 3 3 4 4 5 5 6 6 6 6 7 7 7 8 9 10 9 10 11 12 12 11 11 11 11 10 9 9 9 9 9 9 10 10 11 11 10 10 10 11 11 11 12 14 14 15 14
22 24 25 27 29 30 30 29 27 26 24 21 18 15 13 12 11 11 11 12 11 9 10 10 9 9 9 9 8 6 4 4 4 4 4 2 3 4 3 1 3 4 4 4 4 4 5 5 5 5 6 8 9 11 11 12 13 14 12 11 11 11 11 9 9 9 8 8 10 11 12 12 13 11 10 11 12 13 13 13 14 15 13 12 11
21 22 23 25 26 28 30 30 29 27 26 22 18 14 12 11 10 10 10 9 9 9 9 9 8 9 8 7 6 4 3 3 3 3 3 2 2 3 1 1 2 3 3 4 4 4 4 5 5 6 8 10 12 14 15 15 15 14 11 9 10 11 11 10 9 9 9 10 13 14 14 14 14 14 12 13 14 14 14 13 11 10 9 9 9
21 21 21 23 24 25 26 26 26 25 22 19 16 12 9 8 9 9 9 10 10 9 8 8 8 8 7 6 6 4 3 3 3 3 2 2 3 4 3 4 5 5 5 5 5 5 5 6 8 9 11 13 14 15 15 15 14 12 10 8 8 11 12 12 10 10 12 13 13 14 15 15 14 13 12 12 12 12 11 9 7 7 9 10 9
22 21 20 21 23 23 23 23 22 19 15 13 11 9 7 7 8 9 9 10 10 9 8 8 8 8 8 7 6 4 3 3 3 3 3 4 5 6 7 6 4 2 3 5 5 6 6 8 10 11 12 12 13 13 14 14 13 12 9 7 6 9 11 11 10 11 14 14 13 15 16 14 11 9 9 8 8 8 7 5 4 7 10 10 9
26 21 18 19 20 19 19 18 15 12 11 10 9 9 11 10 10 9 9 10 9 9 10 10 9 9 8 6 4 4 4 4 4 4 5 5 5 7 7 4 1 1 5 7 8 8 8 10 12 13 13 14 15 15 15 14 13 12 10 7 5 6 7 9 9 12 16 17 17 17 14 10 7 7 7 6 5 6 7 5 4 7 9 8 8
27 22 18 17 16 14 12 12 11 10 11 11 10 10 11 11 11 10 10 10 10 10 11 11 10 9 8 6 5 4 5 5 6 6 6 6 5 7 7 4 2 5 6 6 8 9 10 12 14 14 14 15 16 16 16 15 15 13 11 9 6 4 7 9 9 13 18 18 17 15 10 7 7 7 6 6 6 6 7 6 5 7 8 7 8
26 22 18 16 14 10 7 7 8 10 12 12 9 8 9 11 11 11 12 12 12 13 12 12 11 10 8 7 5 5 5 7 7 7 7 6 6 6 5 4 4 5 3 2 6 9 10 11 13 13 14 16 16 16 16 15 15 14 12 11 8 6 9 10 11 13 13 12 12 10 8 8 9 9 8 7 6 6 7 7 6 8 9 9 10
22 18 16 16 13 8 6 7 9 11 13 12 10 9 10 11 12 13 13 13 13 14 13 11 10 9 8 6 5 5 6 6 7 7 6 6 5 4 2 3 3 2 2 4 5 9 11 12 13 13 14 15 15 16 16 15 14 14 13 12 11 10 11 11 11 10 9 10 11 10 9 10 10 10 9 8 7 7 7 7 8 9 11 12 12
17 16 16 16 12 9 9 12 13 13 14 12 11 12 12 13 14 15 15 14 13 13 13 12 11 10 8 6 6 6 6 6 6 7 6 4 3 2 2 2 2 2 2 3 1 8 11 11 12 12 13 14 14 14 14 14 13 13 12 12 11 11 11 11 10 8 7 7 10 10 10 10 9 8 9 9 9 8 8 10 12 12 12 13 15
17 17 16 14 13 13 14 16 16 15 15 13 13 15 15 16 16 16 15 15 14 13 13 13 12 10 9 7 7 7 7 6 5 5 4 2 1 2 3 3 2 2 2 0 2 7 9 9 10 11 12 13 13 13 12 11 11 11 11 10 10 9 8 9 10 9 8 8 10 11 11 11 10 9 9 10 11 11 11 12 14 14 14 15 16
16 16 15 14 15 16 17 17 17 17 17 16 17 18 18 18 17 16 15 14 12 12 13 13 11 10 10 8 8 7 7 6 5 3 2 0 2 3 4 4 3 3 3 3 5 8 9 9 9 10 11 12 12 12 11 11 11 11 10 9 9 9 8 9 9 10 10 10 10 10 10 10 10 11 12 14 15 15 14 14 15 15 16 16 16
15 14 14 15 16 17 18 19 18 18 19 20 21 21 21 19 18 15 14 13 12 12 13 13 13 12 10 9 8 7 6 5 4 2 0 2 4 4 4 4 4 4 5 5 6 7 8 8 9 9 10 11 11 11 12 12 12 12 11 11 12 11 11 11 11 11 11 11 12 13 13 13 13 13 13 15 16 16 14 13 14 13 14 14 14
14 13 14 17 18 19 20 20 20 20 21 21 22 22 21 19 17 15 15 15 14 14 14 14 14 12 10 9 7 6 5 3 2 0 1 2 4 4 3 3 3 4 4 4 4 5 6 7 8 9 10 10 11 11 11 11 11 11 12 14 15 16 15 15 14 14 14 14 15 17 18 18 18 18 16 14 15 16 16 14 13 14 15 15 15
14 14 16 18 20 21 22 21 21 22 22 21 20 19 18 17 16 16 17 17 17 17 17 15 13 12 11 8 6 5 4 3 2 1 1 2 2 4 4 2 3 5 6 5 4 5 6 7 8 10 10 10 10 10 9 9 10 11 13 14 15 17 18 17 17 18 18 19 19 20 19 19 19 19 17 14 12 14 16 17 17 18 19 19 19
15 15 17 19 20 21 23 23 24 24 24 22 20 18 17 17 17 17 18 17 18 18 17 15 13 11 10 9 7 6 4 3 2 1 2 2 2 4 5 6 7 8 8 7 6 6 7 7 8 9 10 10 11 12 11 10 11 13 15 14 15 17 17 17 18 19 18 18 18 17 17 17 16 15 15 14 12 13 15 18 19 19 20 20 19
13 14 16 19 21 22 23 24 24 24 24 23 22 20 20 19 19 19 18 17 17 16 14 13 11 10 9 8 7 6 4 1 2 3 1 1 2 4 6 8 9 9 9 8 6 5 5 6 7 8 10 10 10 11 11 12 11 10 11 13 14 15 16 17 19 16 13 14 15 15 16 17 16 15 15 16 15 15 14 15 16 17 17 17 17
10 11 13 18 22 23 23 23 21 21 22 22 21 21 20 19 19 18 18 16 15 14 13 12 10 10 9 8 6 5 3 3 3 2 1 1 3 5 6 8 8 8 8 5 3 2 3 5 7 7 9 10 10 9 10 12 12 11 11 11 11 13 17 18 17 14 13 14 15 15 16 17 17 17 17 17 17 17 16 15 15 15 15 15 15
8 8 6 14 21 21 21 22 21 20 21 22 22 23 21 19 17 17 16 15 13 13 12 10 9 8 7 7 6 4 2 2 2 1 2 4 5 6 7 8 8 7 6 3 5 5 6 6 6 7 7 7 8 8 9 11 12 11 11 11 10 13 17 18 16 15 14 14 15 16 16 17 17 18 18 18 18 17 16 15 15 15 15 16 15
7 8 2 14 19 17 18 22 22 22 23 23 23 24 24 22 20 18 16 15 13 13 11 10 9 7 5 5 6 4 1 1 3 4 6 7 8 8 9 8 6 5 4 4 7 7 7 6 5 6 6 7 8 9 9 10 11 11 11 11 11 14 18 19 18 17 14 13 15 17 17 17 18 18 18 18 18 17 17 16 16 15 15 14 14
3 0 5 14 16 15 18 22 22 22 22 21 20 20 21 22 21 19 16 13 12 12 10 9 8 7 5 4 4 2 0 2 4 6 8 9 9 8 7 5 5 7 7 6 5 6 7 7 7 7 7 8 9 9 9 10 10 10 11 12 12 16 20 20 20 20 16 13 15 17 17 17 18 18 18 18 18 18 17 17 16 16 16 15 15
6 9 12 15 16 15 17 22 22 21 21 19 18 18 18 19 19 18 16 13 11 10 9 7 6 5 4 3 2 1 3 4 5 7 8 7 6 6 7 7 8 9 9 8 6 6 6 7 7 7 8 8 9 9 10 10 11 12 13 13 13 16 19 20 21 23 19 14 14 18 18 17 18 19 18 18 18 17 18 17 17 18 18 18 18
8 12 16 18 18 16 16 21 22 21 20 20 19 18 17 15 15 15 14 13 11 9 7 6 5 5 4 3 2 3 4 5 6 6 5 6 8 9 11 10 8 6 6 6 6 6 6 7 7 8 9 9 9 9 10 11 12 12 13 14 13 13 16 18 21 24 21 17 16 19 19 19 19 20 20 19 18 18 18 19 19 19 19 19 20
9 13 17 19 18 16 16 20 21 21 21 20 19 18 17 15 14 12 11 10 9 8 8 7 6 5 4 4 4 5 5 4 4 4 6 10 12 13 13 12 11 9 8 7 7 7 8 9 10 10 10 10 10 10 10 11 12 11 12 15 14 13 15 17 18 20 20 18 16 18 19 18 19 19 19 19 19 19 19 19 19 19 20 20 21
12 16 18 17 17 18 19 21 22 21 20 19 17 16 15 13 11 10 9 9 9 9 8 8 6 5 5 6 8 8 7 7 7 8 10 11 12 13 12 10 9 8 8 9 9 10 10 11 10 10 9 9 10 10 9 10 10 11 12 15 14 14 16 17 17 19 20 17 15 17 18 17 17 18 18 19 18 18 19 20 19 19 21 21 20
15 18 19 18 18 20 21 21 21 20 18 16 14 13 12 10 8 9 10 11 10 9 8 7 6 6 7 9 10 11 12 11 12 13 13 12 12 12 10 9 8 8 8 10 11 11 12 11 9 8 9 9 9 10 9 10 11 11 12 12 13 13 15 15 16 18 18 16 16 18 18 17 18 19 19 19 19 19 20 20 20 21 22 21 20
19 20 19 18 19 20 21 21 19 17 15 13 11 10 9 9 9 9 11 11 11 9 8 8 8 7 8 9 11 12 14 14 14 14 12 12 11 10 9 8 8 8 8 10 10 9 8 8 7 8 9 10 10 10 10 10 11 12 13 13 13 14 15 15 16 17 16 17 19 19 18 18 19 18 19 19 20 20 21 21 21 22 22 22 22
22 20 19 19 19 21 21 20 17 14 12 11 10 8 7 9 11 12 12 12 11 9 10 11 8 5 5 7 10 12 13 13 12 11 9 9 8 8 8 7 7 7 8 8 7 7 6 7 7 7 8 8 9 11 12 12 12 13 14 15 15 15 15 16 16 16 17 19 19 18 18 18 18 18 19 20 20 21 22 22 21 22 22 22 22
22 21 20 20 20 20 19 17 15 13 11 10 8 8 9 11 13 13 13 11 10 10 9 8 6 2 2 5 8 9 9 7 6 6 6 7 7 7 6 5 5 7 7 7 7 7 7 9 9 9 9 9 11 12 13 12 13 13 13 13 14 15 15 15 15 16 16 18 18 18 18 18 18 19 19 20 21 22 22 22 22 22 22 22 23
24 24 23 22 21 20 18 15 14 12 10 9 9 9 11 12 11 10 8 7 8 9 6 3 2 2 3 1 5 8 8 6 5 5 6 5 5 6 6 6 6 7 7 7 6 4 5 9 12 12 10 9 9 10 10 12 13 14 13 14 15 16 15 15 16 16 15 15 16 17 17 17 18 19 19 19 21 21 21 22 23 22 22 22 22
25 25 25 24 21 19 17 16 15 13 11 10 10 9 9 8 7 5 4 5 7 8 5 1 3 3 3 5 7 8 7 5 3 4 4 5 5 6 5 5 5 6 6 7 7 5 5 7 10 10 9 9 11 11 11 12 13 13 13 14 15 16 16 17 17 17 16 16 16 17 17 17 18 18 18 19 20 20 21 23 24 24 23 22 22
25 25 25 24 22 19 18 18 17 15 13 11 10 9 8 7 6 6 8 8 9 9 5 3 1 4 6 9 9 6 6 4 3 3 4 4 4 5 4 3 4 4 5 6 10 10 8 7 9 11 11 12 14 14 13 13 14 15 15 15 15 16 17 18 18 18 18 18 18 17 16 16 17 18 19 18 18 20 22 24 24 24 25 24 23
27 25 25 24 23 21 20 20 20 18 16 14 12 10 9 8 8 10 11 10 8 6 4 1 5 10 12 10 7 5 5 4 3 4 4 3 3 4 3 2 3 4 4 4 7 9 9 9 10 11 11 11 13 15 14 14 16 17 17 16 17 18 18 18 18 19 19 20 19 18 17 18 19 19 19 20 22 25 27 26 24 24 25 26 26
28 26 26 26 25 24 23 23 21 19 16 13 11 11 11 11 11 12 11 9 6 4 3 4 7 8 8 7 5 4 3 2 3 4 4 3 3 2 1 2 4 4 4 5 6 7 8 9 10 11 11 12 14 15 16 16 17 18 17 16 17 18 18 18 18 19 20 20 20 20 21 21 21 22 24 26 28 29 29 27 26 27 28 29 30
25 24 25 26 25 24 22 20 18 16 13 12 13 14 13 12 12 12 11 10 9 8 7 6 6 6 6 5 4 4 4 3 3 3 2 2 2 1 2 4 6 5 4 5 6 7 9 10 10 11 12 13 14 16 18 18 18 17 17 18 19 20 20 21 21 22 23 23 23 24 26 26 27 28 30 31 29 28 27 29 30 30 31 31 32
24 23 23 23 22 21 19 18 18 18 18 18 17 16 14 13 13 13 12 11 10 9 8 8 7 7 6 5 5 4 3 3 2 2 1 1 2 4 4 4 4 5 5 5 6 8 11 12 11 12 13 15 17 18 17 16 16 17 18 21 23 24 24 25 25 26 27 27 28 29 30 31 32 32 31 31 31 30 30 30 30 29 30 31 31
25 26 26 26 25 24 23 22 22 21 21 20 18 16 15 15 14 13 12 11 10 9 9 8 7 6 5 5 5 4 3 3 3 1 1 0 1 3 3 3 6 7 6 5 7 11 13 13 12 13 14 16 16 15 14 15 17 19 21 23 25 25 25 26 26 27 27 28 29 31 32 33 34 34 33 33 34 34 32 32 32 31 30 30 30
26 27 28 28 28 27 25 23 22 21 20 19 16 15 14 14 13 12 12 10 9 9 8 8 7 7 6 5 4 4 4 3 2 1 0 0 1 1 3 7 9 7 5 6 10 14 15 13 11 11 12 13 13 15 17 18 20 22 24 25 26 27 27 27 28 29 30 31 32 33 34 35 36 36 36 37 36 35 33 33 34 33 32 31 30
24 25 26 25 25 25 23 21 20 19 18 16 15 14 13 13 12 12 11 10 10 9 9 8 7 7 6 5 4 3 3 3 2 1 0 2 3 3 6 9 7 4 3 7 10 11 13 13 12 11 13 16 18 20 21 23 25 27 28 29 30 31 32 32 33 34 35 36 37 38 38 38 38 38 37 36 35 34 33 33 32 32 32 30 28
26 26 26 25 23 22 21 19 18 17 17 16 15 15 14 13 12 12 11 11 10 9 8 8 7 6 5 5 4 2 2 2 1 1 2 4 3 4 6 8 8 8 10 14 13 10 11 13 14 15 17 20 22 23 25 26 28 30 31 32 34 35 36 38 39 40 40 41 41 41 39 37 34 32 30 28 26 26 26 27 27 27 26 25 24
Wind_Direction
202 202 202 202 205 211 216 218 221 223 217 214 220 219 209 210 216 215 217 221 222 225 227 226 227 230 236 235 229 229 230 231 236 243 251 259 263 266 266 262 264 273 280 284 284 279 275 276 281 286 291 292 290 289 289 288 290 291 292 292 290 289 290 292 293 293 295 296 296 295 295 297 298 295 291 292 295 295 297 300 297 289 285 284 285
211 214 218 217 214 215 218 218 218 219 216 216 219 218 213 215 219 215 215 218 221 224 227 227 230 232 236 242 247 245 239 237 239 240 247 259 270 275 274 270 270 275 280 284 284 282 279 279 281 286 289 291 290 289 288 286 286 287 289 289 284 284 291 295 293 293 296 299 300 301 300 297 296 296 295 292 289 290 295 298 296 291 286 283 284
216 219 226 224 216 215 218 218 216 213 212 214 216 216 215 215 214 211 212 218 221 223 224 227 233 232 229 236 247 250 246 244 244 243 248 260 269 273 274 273 271 273 280 284 283 281 280 279 281 283 285 285 284 284 284 284 285 287 289 290 289 289 290 289 290 294 298 301 305 308 305 297 297 299 294 289 287 289 292 294 294 293 290 284 282
210 212 218 218 213 212 214 212 209 208 209 209 211 216 217 215 210 205 205 208 214 220 218 221 232 233 226 225 228 234 242 248 252 255 260 265 267 269 270 271 270 268 270 273 274 275 276 277 280 281 281 282 283 285 287 290 292 292 293 296 297 298 295 291 294 298 300 302 307 312 311 304 301 300 295 295 297 296 295 296 297 297 294 288 286
203 200 202 206 208 210 212 212 209 207 206 207 210 214 218 218 214 211 208 204 208 217 217 217 226 230 229 229 230 234 243 255 262 265 266 267 267 269 269 270 271 268 267 269 272 275 276 278 281 282 282 284 289 291 292 294 294 292 295 298 298 299 300 300 301 302 304 307 309 313 315 311 307 304 301 303 304 303 300 299 298 299 297 293 289
194 194 194 198 203 205 208 211 211 209 207 209 213 214 216 219 218 217 216 212 211 217 219 222 228 233 237 241 242 243 247 258 266 267 267 268 269 270 271 271 271 270 272 275 275 277 279 281 284 286 287 291 296 298 296 296 296 295 298 301 302 303 305 307 307 306 307 310 314 317 318 315 315 314 311 309 307 306 304 300 300 302 302 299 295
188 192 197 199 200 203 206 206 207 208 208 210 214 214 215 218 219 217 218 218 216 219 224 231 238 243 247 250 252 255 257 260 264 265 267 268 270 273 276 278 277 277 279 281 279 279 281 283 289 293 293 296 299 299 299 300 301 301 303 305 306 308 310 309 307 306 307 310 313 315 315 315 316 315 314 313 311 311 308 305 307 309 306 304 303
187 188 192 195 198 200 202 202 203 206 208 210 212 212 213 216 220 220 220 221 221 224 232 242 246 246 247 249 252 258 261 261 261 262 265 270 273 276 278 280 282 284 285 284 282 281 281 285 293 298 298 298 297 298 300 301 300 302 306 307 309 313 314 312 309 308 309 311 313 314 314 315 313 311 313 314 313 314 311 308 309 308 305 304 307
189 188 191 196 200 200 198 199 201 203 207 210 211 213 214 217 223 227 226 226 227 231 237 243 243 240 242 249 255 256 257 260 263 265 272 280 278 276 279 285 290 292 289 284 280 281 287 293 298 302 302 300 300 306 311 310 308 311 313 312 315 319 319 317 316 316 315 316 318 317 314 315 314 312 313 313 312 313 313 312 313 310 307 306 308
189 190 196 201 202 201 201 201 202 203 206 209 211 213 216 220 224 226 226 228 231 232 233 234 235 240 250 259 263 258 251 258 270 276 282 285 279 275 284 296 300 299 294 293 293 294 301 304 305 309 309 309 314 321 323 322 323 325 325 323 323 324 325 324 321 320 320 321 323 322 317 318 318 316 317 317 313 310 312 315 317 315 313 312 316
196 199 207 209 202 200 204 203 203 205 206 207 209 209 213 217 216 213 216 224 227 227 230 237 243 248 255 260 258 256 252 254 272 280 276 271 267 267 277 285 291 298 304 313 318 319 316 314 316 318 320 324 328 328 328 329 330 332 333 333 330 328 331 333 330 327 327 326 326 325 323 325 325 322 321 320 315 311 311 314 316 315 312 311 314
203 207 213 214 206 204 208 208 207 209 207 206 207 208 207 205 200 201 211 221 225 229 240 251 254 250 251 252 250 252 250 241 249 255 250 238 219 209 216 252 284 303 313 315 321 333 333 329 335 340 340 338 333 329 330 330 328 328 329 329 330 333 338 338 334 333 333 331 332 330 325 323 321 319 318 314 307 304 303 306 308 306 303 303 308
204 206 212 214 212 212 215 216 217 217 214 211 211 207 199 192 192 200 212 220 226 235 240 241 245 246 243 244 243 237 224 223 234 232 218 190 171 179 194 280 313 320 326 330 334 340 336 337 349 347 330 323 325 326 326 326 327 329 329 326 325 333 342 343 335 334 336 333 330 325 319 313 309 306 304 300 297 295 296 300 302 303 303 305 314
204 204 208 210 211 214 216 220 223 222 219 217 215 209 197 189 190 194 203 215 218 221 220 215 221 230 227 222 221 207 194 213 226 210 193 177 162 163 166 353 356 353 357 6 355 325 320 334 335 318 310 314 319 320 320 321 323 326 327 325 326 334 345 348 339 333 338 337 329 324 318 311 304 299 296 296 295 293 297 301 304 311 321 322 324
208 208 210 211 211 212 214 216 218 219 219 216 210 203 193 187 185 184 196 209 206 205 209 205 207 212 205 192 191 191 201 215 209 198 188 166 144 128 93 52 42 32 17 11 349 314 317 339 332 316 313 318 319 317 320 324 325 325 323 323 337 348 348 345 340 334 334 334 331 330 326 316 307 301 298 297 294 292 299 306 311 322 327 321 321
213 215 217 217 216 215 214 214 214 214 209 199 191 192 203 204 191 184 193 203 201 197 194 190 193 196 189 185 190 202 224 217 193 181 166 150 142 121 90 64 52 44 10 4 352 332 335 346 338 328 327 330 332 332 334 336 336 335 328 320 344 359 343 330 332 330 324 323 326 327 324 317 310 308 306 302 297 298 310 324 334 326 316 311 317
210 214 215 217 219 221 219 211 205 198 188 185 197 220 227 212 187 179 189 197 197 189 179 177 183 187 182 179 190 215 220 196 164 158 154 149 149 130 114 119 170 53 24 10 1 351 346 342 336 335 340 344 345 345 346 347 346 346 341 326 340 4 333 318 323 318 310 313 318 319 318 317 318 322 323 316 309 314 319 320 326 319 309 307 316
206 207 207 208 212 223 224 204 188 185 190 198 211 223 219 198 178 176 181 181 179 175 172 173 174 175 176 173 179 195 191 167 150 150 147 140 140 134 133 146 110 59 41 11 352 344 338 333 329 331 341 346 347 346 349 352 353 354 353 344 346 338 304 301 305 300 301 310 317 317 322 330 328 326 327 319 316 325 325 316 318 322 317 314 312
200 200 201 199 197 208 222 207 190 188 192 197 201 203 202 192 181 175 170 167 167 167 169 172 168 167 171 174 172 172 166 154 145 140 137 136 136 134 134 123 92 79 78 25 349 332 324 325 326 329 338 343 344 345 348 353 356 359 360 357 356 341 318 317 314 304 309 330 339 339 340 333 327 328 329 329 328 330 329 322 317 320 320 314 307
193 193 194 192 188 189 199 203 203 200 195 192 190 192 195 188 174 166 164 165 167 165 166 168 164 160 164 165 162 156 151 147 141 136 140 147 140 129 114 93 84 69 65 57 3 316 308 317 324 328 336 340 340 342 344 350 355 360 3 3 2 357 348 346 345 340 347 355 350 341 328 318 320 323 324 328 325 316 313 307 301 306 310 307 302
193 193 191 194 195 188 187 193 197 197 193 189 185 184 184 178 169 164 163 163 162 160 161 158 152 149 150 150 150 151 145 140 141 140 141 143 127 84 19 14 13 331 16 76 9 293 299 312 321 329 336 337 338 339 341 346 350 354 360 2 5 6 2 359 1 4 358 336 326 326 323 318 320 318 312 315 316 307 295 290 291 295 297 297 298
196 192 190 195 190 174 173 182 185 182 181 182 179 173 170 168 166 165 163 160 158 158 155 149 145 147 148 145 144 145 141 138 143 144 141 139 79 10 353 348 345 325 314 161 270 294 303 314 324 332 337 337 337 339 340 345 352 357 360 359 359 1 359 355 352 349 342 333 331 336 338 336 337 332 324 325 327 322 309 298 296 298 296 293 291
193 188 183 182 176 167 170 178 179 175 174 175 173 168 165 164 164 166 166 160 156 154 148 144 150 155 153 148 145 143 141 141 143 151 160 146 350 353 349 342 340 327 310 295 298 308 317 326 330 335 339 339 342 346 347 353 0 2 1 356 350 348 346 341 336 336 338 340 340 342 343 341 340 339 336 335 335 332 323 314 309 307 305 302 297
188 182 173 170 167 166 169 173 173 170 168 170 169 165 163 162 162 163 162 155 151 151 146 147 158 162 154 146 145 146 149 150 150 160 281 344 345 341 334 325 317 315 316 315 314 317 324 330 335 341 344 344 348 351 352 356 357 354 354 352 347 345 341 330 324 325 329 332 335 334 332 331 329 329 333 338 338 334 327 324 323 321 323 324 321
185 180 172 167 163 162 165 168 168 166 164 164 165 162 160 158 155 154 155 154 152 153 155 158 163 161 152 145 148 153 155 157 154 100 341 334 340 342 338 328 320 319 321 324 326 329 334 339 345 349 351 353 357 358 360 1 354 350 357 357 348 342 339 332 326 324 325 328 331 329 326 326 322 319 323 331 333 331 327 325 325 328 333 333 328
187 181 176 171 163 160 162 164 162 161 160 159 159 157 154 151 147 147 150 150 149 153 161 165 164 161 156 151 151 154 158 171 181 218 272 279 338 355 355 359 349 334 331 334 334 336 341 347 351 358 6 10 9 10 12 3 346 341 351 356 348 342 341 338 331 328 328 329 330 330 330 327 322 321 323 321 319 325 327 322 321 325 330 329 326
189 184 179 173 162 156 155 157 159 158 156 154 152 148 146 145 143 142 144 146 151 158 163 162 160 162 159 154 156 167 182 204 195 199 253 276 349 352 337 332 330 327 328 330 324 323 337 352 1 14 28 29 21 20 12 354 346 346 346 348 348 342 339 338 333 331 334 335 338 342 344 342 341 342 340 333 323 319 319 319 324 330 333 334 334
194 189 181 170 160 152 149 154 158 156 150 148 147 143 144 148 146 144 146 149 154 158 157 152 155 158 155 156 169 181 185 145 104 120 137 333 331 318 312 311 314 320 327 328 318 309 333 4 12 21 26 17 8 9 357 341 343 347 340 346 350 336 327 333 337 343 356 356 353 356 356 353 355 356 352 348 343 335 330 332 337 339 339 340 340
212 211 197 171 154 149 152 155 156 152 148 147 146 142 144 150 150 147 149 151 153 155 151 147 153 158 155 158 171 176 154 115 106 116 97 347 311 306 309 308 314 328 338 342 354 345 354 14 18 17 19 8 356 355 348 341 346 349 349 359 354 326 321 332 343 360 13 5 1 5 359 353 354 355 354 354 352 352 354 353 347 343 342 342 340
261 278 228 162 143 139 151 157 154 152 152 151 147 142 138 142 147 146 143 144 148 153 150 140 141 150 152 153 156 157 145 119 96 44 7 351 332 325 327 325 331 345 354 28 53 30 6 12 17 11 14 14 5 2 359 356 358 1 5 9 354 330 332 342 350 2 8 8 12 9 353 348 355 358 357 357 355 357 0 355 350 350 347 344 340
277 327 75 143 135 130 146 154 151 151 153 152 151 147 139 136 137 135 132 131 132 136 135 127 126 134 145 158 164 167 164 58 27 15 5 354 344 342 345 346 357 18 47 93 82 47 17 11 17 15 18 20 13 5 4 8 9 8 11 12 356 342 346 352 352 353 358 16 22 3 343 349 1 359 357 358 356 356 358 355 354 354 346 342 342
224 355 126 142 139 140 156 159 155 153 153 153 154 154 149 144 138 132 129 132 133 135 134 129 128 134 139 154 173 182 3 15 9 1 355 349 347 354 8 30 64 76 80 89 86 59 37 32 36 38 36 31 23 13 13 18 15 6 9 13 0 349 352 357 355 351 355 19 19 356 345 357 3 357 357 360 357 356 357 355 353 349 343 341 341
186 171 160 152 150 156 165 163 159 158 157 155 153 153 153 153 147 140 136 139 141 142 138 130 124 124 115 109 110 48 9 359 351 348 349 357 14 38 60 81 99 100 89 80 72 63 60 56 52 46 38 34 29 21 15 15 11 6 8 11 4 354 353 354 354 354 2 21 14 355 354 4 1 356 0 0 357 357 355 350 349 349 346 345 343
187 169 163 161 161 163 162 158 154 152 152 153 151 148 146 148 148 146 145 144 143 140 132 123 114 107 98 81 50 13 352 344 346 355 17 49 63 67 70 75 80 77 74 78 81 75 64 52 43 40 39 35 27 21 15 9 9 9 4 2 7 2 351 350 353 355 3 16 8 355 360 5 359 357 0 359 357 357 352 348 350 351 348 346 342
191 178 171 168 165 161 155 151 150 149 150 151 149 145 143 142 143 146 147 145 139 131 124 119 113 102 81 43 19 8 1 7 27 52 72 79 77 70 66 66 62 49 41 50 61 60 54 49 41 37 37 31 20 16 11 2 3 3 351 353 7 5 349 349 352 350 356 7 2 354 359 1 356 355 357 355 355 353 348 346 348 347 345 343 338
192 182 173 168 164 159 156 154 154 156 156 153 150 148 148 149 148 147 144 138 131 124 118 114 103 83 58 40 34 38 47 63 77 84 87 87 82 76 74 74 67 55 50 52 52 47 45 46 41 31 26 21 11 7 2 355 358 357 346 349 1 358 346 348 351 349 354 2 356 350 354 355 352 352 352 351 351 348 343 344 343 339 340 341 338
187 175 170 170 168 166 163 162 162 162 160 156 154 154 155 155 150 142 138 133 124 118 116 106 86 67 59 52 50 55 63 69 73 74 74 72 65 59 61 68 66 58 53 51 48 41 35 34 30 21 13 7 357 352 351 353 354 351 344 346 353 350 344 344 348 351 355 354 348 349 352 350 350 350 348 347 348 344 342 343 342 338 338 340 340
187 181 178 177 173 169 167 165 163 163 160 155 151 150 150 153 150 142 135 128 121 114 102 83 64 52 49 55 62 62 60 60 59 57 58 64 64 57 54 59 62 55 43 39 42 40 28 17 14 9 1 357 352 346 347 350 348 345 346 348 347 344 340 340 346 349 345 337 338 345 347 345 345 346 343 343 344 342 341 343 343 340 340 339 339
188 187 183 177 172 169 169 168 166 166 164 157 151 148 144 144 143 138 129 122 114 98 82 78 81 71 48 60 74 71 63 59 56 50 47 54 63 66 61 56 57 52 39 30 34 32 6 347 358 3 350 343 346 343 343 347 347 344 345 344 339 335 334 333 338 342 339 335 336 339 337 337 338 340 340 341 340 338 338 339 338 337 337 336 336
184 182 179 176 172 169 168 168 166 165 165 162 160 152 136 131 130 127 123 115 99 84 85 101 121 125 27 50 70 72 65 56 49 52 57 53 54 64 62 50 60 68 42 7 4 16 360 344 353 2 352 345 347 344 341 342 339 336 337 338 335 334 333 330 329 332 334 337 338 334 331 333 334 334 335 335 333 333 334 333 332 331 330 330 330
180 177 175 175 173 169 169 169 166 165 167 166 159 143 129 124 122 121 120 107 86 87 105 139 177 280 305 52 99 94 83 70 56 60 67 56 49 57 48 29 50 71 46 357 347 10 5 351 355 1 359 353 349 340 337 337 333 330 333 334 330 328 328 327 326 324 324 328 332 330 327 327 326 326 327 328 327 328 328 328 327 326 324 324 325
177 174 173 174 174 173 173 171 166 164 160 149 137 127 124 124 121 114 105 89 96 116 141 233 299 286 248 190 151 120 90 78 77 69 64 53 47 52 47 28 40 66 53 9 346 349 3 356 349 347 348 347 340 329 326 330 330 329 329 328 326 327 326 322 319 317 313 311 313 315 317 320 321 322 322 321 321 322 322 322 322 321 319 318 319
178 175 172 170 170 172 171 167 163 159 150 138 130 128 132 130 110 91 88 99 126 155 191 258 264 136 142 150 149 122 79 79 104 81 66 65 57 53 47 9 5 45 56 9 341 345 1 356 335 331 336 337 331 325 321 322 324 323 320 315 314 318 319 316 314 314 311 307 304 303 307 312 315 316 315 314 314 316 317 315 314 313 313 313 313
176 173 165 162 166 168 164 158 153 145 136 130 128 131 133 126 110 104 112 128 157 190 215 164 117 121 119 120 121 101 81 98 108 81 69 71 64 60 54 9 5 36 47 5 341 348 357 346 333 333 333 326 321 321 319 316 317 318 317 314 310 310 311 311 311 310 308 304 302 301 301 302 306 308 308 308 310 312 313 311 307 306 307 308 307
171 169 162 162 168 167 159 154 152 146 140 137 133 127 125 125 124 126 132 141 155 168 149 107 103 108 108 103 102 101 101 104 95 86 81 71 67 67 6 343 16 32 18 351 347 347 341 332 329 328 323 318 317 318 316 315 315 316 316 313 310 308 307 306 305 302 300 299 299 299 297 296 298 300 301 304 307 308 309 307 305 302 302 303 303
166 164 161 160 161 159 157 158 157 151 147 145 136 126 125 131 135 138 142 143 141 143 140 127 118 119 120 118 119 118 111 101 98 101 96 87 80 38 345 7 24 19 348 338 341 333 322 319 319 317 314 315 319 322 323 322 320 316 310 305 302 301 301 299 297 295 294 295 295 295 294 293 294 295 299 303 305 304 303 305 306 305 303 304 304
160 154 151 149 149 150 152 151 146 139 135 133 132 131 135 139 140 141 145 146 144 141 137 133 133 133 128 125 124 120 116 122 121 97 76 79 43 24 22 22 3 338 329 336 338 326 316 313 312 313 315 319 323 325 321 312 304 300 297 296 298 299 299 299 297 296 296 296 297 296 295 294 295 296 298 300 301 301 301 304 306 306 305 305 304
145 137 132 131 134 137 135 130 126 125 125 128 133 140 144 143 141 141 142 140 139 137 134 133 135 134 131 131 132 127 125 133 133 114 113 140 31 28 23 334 323 328 333 331 325 322 320 319 320 323 325 324 321 315 304 295 294 297 296 296 298 299 299 299 298 297 297 297 297 296 295 294 295 296 297 298 299 300 300 300 302 303 304 303 302
131 129 126 123 123 123 123 122 122 123 127 131 138 142 142 139 137 137 137 135 135 136 134 131 132 134 135 135 135 130 128 135 143 137 120 289 302 303 305 314 325 341 353 338 327 327 329 333 339 341 331 315 303 299 298 298 300 301 300 299 300 300 300 299 299 298 297 297 297 297 297 297 296 297 297 298 298 298 298 298 299 300 300 300 300
119 121 120 116 112 112 114 118 122 126 129 132 134 135 135 135 136 136 135 134 131 132 133 135 136 137 139 140 141 142 142 146 145 121 5 292 289 307 316 315 319 337 329 308 312 325 333 332 331 327 313 300 295 298 301 301 301 301 301 301 301 301 300 300 300 300 301 301 301 300 300 300 300 300 300 299 300 299 299 298 298 298 298 298 298
112 113 115 115 115 117 119 122 126 129 130 131 133 135 136 135 134 132 133 133 132 132 134 135 137 139 140 140 144 152 154 153 162 249 281 285 301 327 316 296 282 275 281 288 296 315 323 314 306 303 301 298 296 296 295 295 296 297 297 298 299 300 300 301 302 303 304 304 304 305 307 308 309 310 309 308 307 305 303 302 302 301 299 297 298
Height
1521 1524 1526 1528 1531 1534 1536 1537 1537 1538 1538 1539 1540 1539 1540 1540 1541 1541 1542 1542 1543 1543 1544 1544 1545 1546 1545 1546 1547 1548 1548 1548 1549 1548 1548 1549 1549 1550 1550 1551 1551 1550 1551 1551 1552 1552 1552 1552 1552 1552 1552 1552 1552 1551 1551 1550 1550 1550 1550 1550 1551 1551 1550 1550 1550 1549 1548 1549 1548 1546 1546 1545 1543 1542 1540 1538 1538 1539 1538 1538 1538 1538 1537 1538 1538
1522 1524 1525 1526 1528 1530 1530 1530 1532 1534 1536 1538 1538 1538 1538 1538 1538 1538 1539 1539 1540 1541 1542 1542 1543 1544 1544 1545 1545 1547 1547 1548 1548 1548 1548 1548 1548 1548 1549 1549 1549 1549 1549 1549 1550 1550 1550 1550 1550 1550 1550 1550 1549 1549 1548 1548 1547 1547 1547 1548 1548 1548 1548 1549 1548 1546 1545 1546 1545 1544 1543 1541 1539 1538 1537 1536 1535 1535 1535 1535 1535 1535 1535 1535 1535
1520 1521 1521 1523 1526 1527 1527 1528 1530 1533 1535 1536 1536 1536 1535 1534 1534 1534 1534 1536 1537 1538 1539 1540 1541 1541 1543 1544 1544 1545 1546 1547 1548 1547 1548 1548 1547 1547 1548 1548 1548 1548 1548 1548 1548 1548 1548 1548 1548 1548 1548 1547 1547 1546 1546 1546 1546 1545 1545 1546 1546 1546 1546 1546 1545 1544 1543 1543 1542 1541 1539 1537 1536 1535 1535 1534 1534 1533 1532 1532 1532 1532 1532 1532 1533
1518 1518 1519 1521 1523 1524 1525 1526 1528 1530 1532 1533 1532 1532 1531 1530 1530 1530 1530 1532 1533 1534 1536 1538 1539 1539 1541 1542 1543 1544 1544 1546 1547 1547 1547 1547 1547 1547 1546 1546 1547 1546 1546 1545 1545 1546 1546 1546 1547 1547 1546 1546 1545 1545 1545 1545 1545 1545 1544 1544 1544 1544 1544 1544 1543 1542 1541 1540 1540 1538 1536 1535 1534 1533 1533 1532 1531 1530 1530 1530 1529 1529 1529 1529 1529
1515 1516 1517 1518 1519 1520 1522 1523 1525 1527 1528 1528 1527 1527 1528 1528 1528 1528 1528 1528 1529 1530 1533 1535 1536 1537 1539 1541 1543 1544 1544 1545 1546 1546 1546 1546 1546 1545 1545 1544 1544 1543 1542 1542 1542 1543 1544 1544 1545 1545 1545 1544 1544 1544 1544 1544 1544 1543 1543 1542 1542 1542 1541 1541 1540 1539 1539 1538 1537 1536 1535 1533 1532 1532 1531 1529 1528 1528 1528 1527 1527 1527 1526 1526 1526
1513 1513 1514 1515 1515 1517 1518 1519 1521 1523 1524 1524 1523 1524 1525 1525 1526 1526 1525 1525 1526 1528 1530 1532 1534 1537 1539 1541 1542 1542 1543 1545 1545 1545 1545 1545 1545 1544 1543 1541 1541 1540 1540 1540 1540 1541 1542 1543 1544 1544 1543 1543 1542 1542 1541 1541 1541 1541 1541 1540 1540 1539 1539 1538 1538 1537 1537 1536 1534 1533 1532 1531 1530 1529 1529 1527 1526 1525 1525 1524 1525 1524 1524 1524 1524
1510 1511 1511 1511 1512 1512 1513 1515 1517 1519 1519 1519 1520 1521 1521 1522 1522 1522 1522 1522 1524 1526 1529 1532 1534 1536 1538 1539 1540 1541 1542 1544 1544 1544 1544 1544 1543 1542 1541 1540 1539 1539 1539 1539 1539 1539 1540 1541 1542 1542 1541 1541 1540 1540 1539 1539 1539 1539 1539 1538 1537 1537 1536 1536 1535 1535 1534 1533 1533 1531 1530 1529 1528 1527 1526 1525 1524 1523 1522 1521 1522 1522 1522 1521 1521
1507 1507 1508 1508 1508 1508 1509 1511 1513 1514 1515 1516 1517 1517 1518 1518 1519 1520 1521 1522 1523 1526 1528 1531 1533 1535 1536 1537 1538 1540 1541 1540 1541 1541 1542 1542 1541 1540 1540 1539 1538 1538 1538 1537 1538 1538 1539 1540 1540 1540 1540 1539 1538 1538 1538 1538 1538 1537 1536 1536 1535 1535 1534 1534 1533 1532 1532 1531 1530 1529 1528 1527 1526 1525 1524 1523 1522 1521 1520 1520 1519 1520 1520 1520 1519
1504 1505 1505 1505 1505 1505 1506 1507 1509 1510 1512 1513 1514 1514 1515 1516 1518 1520 1522 1523 1524 1526 1528 1530 1531 1533 1535 1536 1537 1539 1539 1538 1539 1539 1539 1539 1539 1538 1538 1537 1536 1536 1537 1537 1537 1537 1538 1538 1538 1538 1537 1537 1537 1537 1536 1536 1536 1535 1534 1534 1533 1533 1532 1531 1531 1530 1529 1529 1528 1527 1526 1525 1524 1523 1522 1522 1521 1520 1519 1518 1518 1518 1518 1518 1518
1503 1503 1504 1504 1504 1504 1504 1505 1506 1507 1509 1510 1511 1512 1514 1515 1517 1520 1522 1523 1524 1525 1526 1528 1530 1533 1534 1535 1536 1537 1538 1538 1538 1538 1538 1537 1536 1536 1536 1536 1536 1536 1536 1536 1537 1537 1537 1537 1536 1536 1536 1535 1535 1535 1535 1535 1535 1534 1533 1532 1531 1530 1530 1529 1529 1528 1527 1527 1526 1526 1524 1523 1522 1521 1520 1520 1520 1519 1518 1517 1517 1516 1516 1516 1516
1501 1502 1502 1502 1503 1502 1502 1503 1504 1506 1506 1507 1509 1511 1513 1515 1517 1520 1521 1522 1523 1524 1525 1528 1530 1532 1533 1534 1534 1535 1536 1537 1537 1537 1537 1536 1535 1535 1536 1536 1536 1536 1536 1536 1536 1536 1536 1535 1535 1534 1534 1534 1533 1534 1534 1534 1533 1532 1532 1531 1530 1529 1528 1528 1527 1527 1526 1525 1525 1524 1523 1522 1521 1520 1520 1519 1519 1518 1517 1517 1516 1515 1515 1514 1514
1500 1501 1501 1501 1502 1502 1502 1502 1503 1504 1505 1506 1508 1509 1512 1514 1516 1519 1520 1520 1520 1523 1526 1528 1530 1531 1531 1532 1532 1533 1534 1535 1535 1536 1536 1535 1535 1535 1535 1536 1536 1536 1536 1535 1535 1535 1535 1534 1534 1534 1533 1532 1532 1532 1532 1532 1531 1531 1530 1529 1529 1528 1527 1526 1526 1525 1525 1524 1524 1523 1523 1522 1521 1520 1519 1519 1518 1517 1516 1516 1515 1514 1514 1513 1513
1500 1500 1500 1501 1501 1501 1501 1501 1502 1503 1504 1505 1507 1508 1511 1513 1516 1517 1518 1518 1520 1522 1525 1527 1528 1529 1529 1529 1530 1531 1532 1533 1533 1534 1534 1534 1534 1534 1535 1535 1536 1536 1535 1535 1535 1534 1534 1534 1533 1533 1532 1531 1531 1531 1531 1530 1530 1529 1528 1527 1527 1527 1526 1525 1525 1524 1524 1523 1523 1523 1522 1521 1520 1520 1519 1518 1517 1517 1516 1515 1514 1514 1513 1513 1512
1500 1500 1500 1500 1500 1500 1500 1499 1500 1501 1502 1505 1506 1508 1510 1512 1515 1517 1518 1518 1520 1521 1523 1526 1527 1527 1527 1527 1528 1529 1530 1531 1531 1532 1532 1533 1533 1534 1535 1535 1535 1535 1535 1534 1534 1533 1533 1533 1533 1532 1531 1530 1530 1529 1529 1528 1528 1527 1527 1526 1526 1525 1525 1524 1524 1523 1523 1523 1522 1521 1521 1520 1519 1518 1518 1517 1516 1516 1515 1514 1514 1513 1513 1512 1512
1500 1499 1499 1499 1498 1498 1497 1497 1498 1500 1502 1505 1506 1508 1511 1513 1516 1518 1518 1518 1520 1521 1523 1525 1526 1526 1526 1527 1527 1528 1529 1529 1530 1531 1531 1532 1533 1534 1535 1535 1535 1535 1535 1534 1534 1533 1533 1533 1532 1531 1530 1529 1529 1528 1527 1527 1526 1526 1525 1525 1525 1524 1524 1524 1523 1522 1522 1522 1521 1520 1520 1519 1518 1517 1517 1516 1515 1515 1514 1514 1514 1513 1512 1511 1511
1495 1494 1495 1495 1495 1495 1495 1496 1498 1500 1503 1505 1507 1509 1512 1513 1515 1517 1517 1518 1519 1521 1522 1524 1525 1526 1526 1526 1527 1527 1528 1529 1529 1530 1531 1532 1533 1534 1534 1535 1535 1535 1535 1534 1534 1533 1533 1532 1531 1530 1529 1529 1528 1527 1526 1525 1524 1524 1524 1524 1524 1524 1523 1523 1522 1521 1521 1521 1520 1520 1519 1518 1517 1516 1516 1515 1514 1514 1514 1514 1513 1512 1511 1510 1510
1487 1488 1490 1491 1493 1494 1495 1497 1499 1502 1504 1506 1508 1508 1509 1511 1513 1515 1517 1518 1519 1520 1522 1523 1525 1525 1525 1526 1527 1527 1528 1529 1530 1531 1532 1532 1533 1534 1534 1534 1535 1535 1534 1534 1534 1533 1532 1532 1531 1530 1529 1528 1527 1526 1525 1524 1523 1523 1523 1522 1523 1524 1523 1522 1522 1521 1520 1520 1520 1519 1518 1517 1516 1516 1515 1514 1514 1514 1513 1513 1512 1512 1511 1510 1509
1482 1484 1486 1489 1491 1495 1497 1499 1501 1502 1503 1505 1505 1505 1507 1510 1513 1515 1517 1518 1519 1521 1522 1523 1525 1525 1525 1526 1528 1529 1529 1530 1530 1531 1531 1532 1533 1533 1533 1533 1534 1534 1534 1534 1533 1532 1532 1531 1530 1529 1528 1527 1526 1525 1525 1524 1523 1522 1522 1522 1522 1522 1522 1522 1521 1520 1519 1519 1518 1518 1517 1517 1516 1515 1515 1514 1513 1513 1512 1512 1512 1511 1511 1510 1509
1479 1481 1485 1488 1490 1493 1499 1503 1504 1504 1504 1504 1505 1506 1508 1511 1513 1514 1516 1517 1518 1521 1522 1524 1525 1526 1527 1528 1529 1530 1530 1530 1530 1531 1531 1531 1532 1532 1532 1532 1533 1533 1534 1534 1533 1532 1531 1531 1530 1529 1528 1527 1526 1525 1524 1524 1523 1522 1522 1521 1521 1521 1521 1521 1520 1519 1519 1518 1518 1517 1517 1516 1515 1515 1514 1514 1513 1512 1512 1511 1511 1510 1510 1509 1508
1479 1482 1485 1487 1487 1490 1497 1502 1502 1502 1503 1503 1504 1506 1508 1510 1512 1513 1514 1516 1517 1519 1521 1523 1525 1526 1527 1528 1529 1530 1531 1530 1530 1531 1531 1531 1531 1531 1531 1532 1532 1532 1533 1534 1533 1531 1530 1530 1529 1528 1528 1527 1526 1525 1524 1523 1523 1522 1522 1521 1521 1521 1520 1520 1519 1518 1518 1518 1518 1517 1516 1515 1515 1514 1513 1513 1512 1511 1511 1510 1510 1509 1508 1508 1507
1481 1482 1483 1484 1484 1486 1492 1496 1496 1498 1502 1503 1504 1505 1507 1509 1511 1512 1513 1515 1517 1518 1520 1522 1524 1525 1526 1528 1529 1530 1530 1530 1530 1530 1530 1530 1530 1531 1531 1531 1531 1531 1532 1533 1532 1530 1529 1529 1529 1528 1527 1526 1526 1525 1524 1523 1523 1522 1522 1521 1521 1520 1520 1519 1519 1518 1518 1518 1517 1516 1515 1514 1514 1513 1512 1512 1511 1510 1510 1509 1508 1508 1507 1506 1506
1480 1480 1481 1481 1480 1483 1488 1492 1494 1497 1500 1502 1503 1505 1506 1507 1509 1510 1512 1514 1515 1517 1519 1521 1522 1525 1527 1528 1529 1529 1530 1530 1530 1530 1530 1530 1530 1530 1531 1531 1531 1531 1531 1531 1531 1529 1529 1529 1528 1528 1527 1526 1525 1524 1524 1523 1523 1522 1522 1521 1521 1520 1520 1519 1519 1518 1517 1517 1516 1515 1515 1514 1513 1513 1512 1511 1510 1509 1509 1508 1507 1506 1505 1505 1503
1478 1479 1480 1480 1479 1482 1486 1489 1492 1495 1498 1500 1502 1504 1505 1507 1508 1510 1512 1514 1515 1517 1519 1520 1522 1525 1528 1528 1528 1529 1529 1529 1530 1530 1530 1530 1530 1530 1531 1531 1531 1531 1531 1530 1529 1529 1529 1528 1528 1527 1526 1525 1525 1524 1523 1523 1522 1522 1522 1521 1521 1520 1520 1519 1518 1518 1517 1516 1515 1515 1514 1513 1513 1512 1511 1510 1509 1508 1507 1506 1506 1504 1504 1503 1502
1478 1480 1480 1479 1480 1483 1485 1488 1491 1493 1495 1498 1501 1502 1504 1506 1508 1510 1512 1514 1516 1517 1518 1520 1523 1526 1528 1528 1527 1528 1529 1529 1529 1529 1529 1529 1530 1530 1530 1531 1530 1530 1530 1529 1529 1528 1528 1528 1527 1526 1526 1525 1524 1524 1523 1522 1522 1522 1522 1521 1520 1520 1519 1518 1518 1517 1516 1515 1515 1514 1513 1512 1512 1511 1510 1509 1508 1507 1506 1505 1504 1503 1502 1501 1501
1478 1480 1480 1479 1480 1483 1484 1487 1489 1491 1494 1497 1499 1501 1502 1504 1506 1509 1512 1513 1514 1515 1518 1521 1524 1526 1527 1526 1526 1527 1528 1528 1529 1529 1529 1529 1530 1530 1530 1530 1530 1529 1529 1529 1528 1528 1527 1527 1526 1526 1525 1525 1524 1523 1523 1522 1522 1522 1522 1521 1520 1519 1518 1517 1516 1515 1515 1514 1513 1513 1512 1511 1510 1510 1509 1508 1507 1505 1504 1503 1502 1501 1501 1500 1499
1478 1480 1480 1480 1481 1482 1484 1486 1489 1491 1494 1497 1499 1501 1502 1503 1506 1509 1511 1512 1513 1515 1519 1522 1524 1525 1525 1525 1526 1526 1527 1528 1529 1529 1529 1529 1529 1529 1529 1529 1529 1528 1528 1528 1527 1527 1526 1526 1526 1525 1525 1524 1524 1524 1523 1523 1523 1523 1522 1521 1520 1518 1517 1516 1515 1514 1514 1513 1512 1511 1510 1509 1508 1508 1507 1507 1506 1504 1503 1501 1501 1500 1499 1498 1497
1479 1480 1480 1480 1481 1482 1484 1487 1489 1491 1493 1496 1499 1501 1503 1504 1506 1508 1509 1511 1513 1516 1519 1521 1522 1523 1524 1524 1526 1526 1527 1528 1529 1529 1528 1529 1529 1529 1528 1528 1528 1527 1527 1526 1526 1525 1525 1525 1525 1525 1525 1524 1524 1524 1524 1523 1523 1523 1523 1521 1520 1519 1517 1516 1514 1513 1513 1512 1511 1510 1509 1508 1507 1506 1505 1504 1504 1503 1502 1500 1499 1498 1497 1496 1495
1481 1481 1481 1481 1481 1482 1485 1487 1489 1491 1493 1495 1497 1500 1502 1504 1506 1507 1509 1511 1513 1516 1518 1520 1521 1522 1523 1524 1525 1526 1527 1528 1528 1528 1528 1528 1528 1528 1528 1527 1527 1526 1526 1525 1525 1525 1525 1525 1525 1525 1525 1525 1524 1524 1524 1523 1523 1523 1523 1522 1521 1519 1517 1515 1514 1513 1512 1512 1511 1510 1508 1507 1506 1505 1504 1503 1502 1501 1500 1499 1498 1497 1496 1495 1494
1484 1485 1486 1485 1484 1484 1487 1489 1491 1492 1494 1496 1497 1499 1502 1505 1506 1508 1510 1512 1514 1516 1518 1519 1521 1522 1522 1524 1525 1525 1526 1527 1527 1528 1528 1528 1528 1527 1527 1526 1526 1525 1525 1525 1524 1525 1525 1525 1525 1525 1525 1525 1525 1525 1524 1523 1523 1523 1523 1522 1521 1518 1516 1515 1514 1512 1512 1511 1510 1509 1508 1507 1505 1504 1503 1502 1501 1500 1499 1498 1497 1496 1495 1495 1494
1490 1492 1493 1492 1491 1490 1491 1493 1494 1495 1497 1498 1499 1501 1503 1506 1508 1510 1511 1513 1514 1516 1517 1519 1520 1521 1522 1523 1524 1525 1526 1527 1527 1527 1527 1527 1527 1526 1525 1525 1525 1525 1525 1524 1525 1525 1525 1525 1525 1525 1525 1525 1525 1524 1524 1524 1524 1523 1523 1522 1520 1517 1515 1514 1513 1512 1511 1511 1510 1509 1507 1506 1504 1503 1502 1501 1500 1499 1498 1497 1497 1496 1495 1494 1493
1492 1496 1498 1498 1497 1496 1496 1496 1497 1498 1499 1501 1501 1502 1504 1506 1509 1511 1513 1514 1515 1517 1518 1520 1521 1522 1523 1524 1524 1525 1526 1526 1526 1526 1526 1526 1526 1525 1524 1524 1524 1524 1524 1525 1525 1526 1525 1525 1525 1525 1525 1525 1525 1524 1525 1525 1524 1524 1523 1522 1520 1517 1515 1514 1513 1512 1511 1510 1509 1509 1507 1505 1504 1503 1502 1501 1500 1498 1498 1497 1496 1495 1494 1493 1492
1490 1495 1499 1501 1501 1500 1499 1497 1498 1500 1501 1502 1503 1503 1504 1505 1507 1510 1513 1514 1516 1517 1519 1520 1521 1522 1523 1524 1525 1525 1526 1526 1526 1526 1526 1525 1525 1524 1524 1524 1523 1524 1525 1525 1526 1526 1526 1526 1525 1525 1525 1525 1525 1525 1525 1525 1525 1524 1522 1521 1520 1517 1516 1515 1514 1513 1511 1510 1509 1508 1506 1505 1504 1503 1502 1501 1500 1498 1498 1496 1495 1494 1493 1492 1491
1489 1492 1496 1499 1502 1503 1501 1499 1499 1501 1502 1503 1504 1504 1505 1506 1507 1509 1511 1513 1515 1517 1518 1520 1521 1522 1523 1524 1525 1525 1526 1526 1526 1526 1526 1525 1525 1524 1524 1524 1524 1525 1525 1526 1526 1527 1527 1526 1526 1525 1525 1526 1526 1526 1526 1525 1525 1524 1522 1521 1520 1518 1517 1516 1514 1513 1511 1510 1510 1509 1507 1506 1505 1503 1502 1501 1500 1499 1498 1496 1495 1494 1493 1492 1491
1488 1491 1494 1496 1500 1503 1502 1501 1501 1502 1503 1504 1505 1505 1506 1507 1508 1509 1511 1513 1515 1516 1518 1520 1521 1522 1523 1524 1525 1525 1526 1526 1526 1526 1526 1525 1525 1525 1525 1525 1525 1526 1526 1526 1527 1527 1527 1526 1526 1526 1526 1526 1526 1527 1526 1526 1525 1524 1523 1522 1521 1520 1519 1517 1515 1513 1512 1511 1510 1509 1507 1506 1505 1503 1502 1501 1500 1499 1498 1496 1495 1494 1493 1492 1490
1489 1492 1494 1495 1498 1502 1503 1502 1502 1503 1504 1504 1505 1506 1507 1508 1509 1510 1512 1513 1515 1516 1518 1520 1521 1522 1523 1524 1525 1525 1526 1526 1526 1526 1526 1526 1526 1525 1525 1525 1526 1527 1527 1528 1528 1527 1527 1527 1526 1526 1527 1527 1527 1527 1527 1527 1526 1525 1524 1522 1521 1521 1519 1517 1516 1515 1513 1512 1511 1510 1508 1507 1506 1504 1503 1502 1500 1500 1498 1497 1496 1494 1493 1492 1490
1488 1491 1493 1494 1497 1500 1502 1501 1501 1502 1503 1504 1505 1506 1507 1508 1509 1511 1512 1514 1516 1517 1518 1520 1521 1523 1524 1525 1525 1526 1526 1526 1526 1526 1526 1527 1526 1526 1526 1526 1527 1528 1529 1529 1529 1528 1527 1527 1527 1528 1528 1528 1528 1528 1527 1527 1526 1525 1524 1523 1522 1521 1520 1518 1517 1515 1513 1512 1512 1510 1509 1507 1506 1505 1503 1502 1501 1500 1498 1497 1496 1494 1493 1491 1490
1489 1490 1492 1494 1496 1498 1499 1500 1500 1502 1503 1505 1505 1506 1507 1508 1510 1512 1513 1515 1516 1518 1519 1520 1522 1523 1524 1525 1526 1527 1527 1527 1527 1527 1527 1527 1527 1527 1527 1528 1529 1530 1530 1529 1529 1529 1529 1529 1529 1529 1529 1529 1529 1528 1528 1527 1526 1525 1524 1523 1522 1521 1520 1519 1517 1516 1514 1512 1511 1510 1509 1508 1506 1505 1504 1502 1501 1500 1498 1497 1495 1494 1492 1490 1489
1489 1490 1492 1494 1496 1497 1498 1499 1500 1502 1503 1505 1505 1506 1507 1509 1510 1512 1514 1515 1517 1518 1520 1521 1522 1523 1525 1526 1527 1528 1528 1528 1528 1528 1528 1528 1528 1529 1529 1530 1530 1531 1531 1530 1530 1530 1530 1530 1530 1530 1530 1530 1529 1529 1528 1527 1526 1525 1524 1523 1522 1521 1520 1519 1517 1517 1515 1512 1511 1510 1509 1508 1506 1505 1504 1502 1501 1500 1498 1497 1495 1494 1492 1490 1489
1489 1490 1492 1494 1496 1496 1497 1498 1500 1502 1503 1504 1505 1506 1507 1509 1510 1512 1513 1515 1517 1518 1520 1521 1523 1524 1525 1527 1528 1529 1529 1529 1529 1529 1530 1530 1530 1530 1531 1531 1531 1532 1532 1531 1531 1531 1531 1531 1530 1531 1531 1530 1529 1528 1527 1526 1525 1524 1524 1523 1522 1521 1520 1518 1517 1516 1515 1512 1511 1510 1509 1507 1506 1505 1504 1502 1501 1499 1498 1497 1495 1494 1492 1490 1489
1488 1490 1493 1495 1496 1497 1498 1499 1500 1501 1502 1504 1505 1506 1506 1508 1510 1511 1513 1514 1516 1518 1520 1522 1524 1525 1527 1528 1529 1529 1530 1531 1531 1531 1531 1531 1531 1532 1532 1532 1532 1532 1532 1532 1532 1532 1532 1532 1531 1531 1531 1530 1529 1528 1527 1526 1525 1524 1523 1522 1521 1520 1519 1517 1516 1515 1513 1512 1510 1509 1508 1507 1506 1504 1503 1502 1501 1499 1498 1496 1495 1493 1492 1490 1488
1486 1489 1492 1494 1496 1497 1498 1499 1500 1501 1502 1504 1505 1505 1506 1507 1509 1511 1512 1514 1517 1520 1521 1523 1524 1526 1527 1529 1530 1531 1531 1532 1532 1532 1533 1533 1532 1532 1532 1532 1532 1532 1533 1533 1533 1533 1533 1532 1532 1531 1530 1530 1529 1527 1526 1525 1524 1523 1522 1522 1520 1519 1517 1516 1515 1513 1512 1511 1510 1509 1507 1506 1505 1504 1502 1501 1500 1499 1498 1496 1494 1493 1491 1489 1488
1486 1488 1490 1493 1495 1496 1497 1498 1499 1500 1502 1505 1506 1506 1506 1507 1509 1511 1513 1515 1519 1521 1522 1523 1524 1526 1527 1529 1531 1532 1532 1533 1533 1533 1533 1533 1533 1533 1533 1533 1533 1533 1534 1534 1533 1533 1533 1533 1532 1531 1530 1529 1527 1526 1525 1525 1524 1523 1522 1521 1519 1518 1516 1515 1514 1513 1511 1510 1509 1508 1506 1505 1504 1503 1502 1500 1499 1498 1497 1495 1493 1492 1490 1488 1487
1486 1488 1490 1493 1494 1495 1496 1497 1499 1500 1502 1505 1506 1506 1506 1508 1510 1512 1515 1517 1520 1521 1523 1524 1526 1526 1528 1530 1531 1532 1533 1533 1534 1534 1534 1534 1534 1535 1535 1534 1534 1534 1535 1534 1533 1533 1533 1532 1532 1530 1529 1528 1527 1525 1525 1524 1523 1522 1521 1519 1518 1517 1516 1514 1513 1512 1510 1509 1508 1507 1505 1504 1503 1502 1500 1499 1497 1496 1495 1493 1492 1490 1489 1487 1485
1485 1487 1490 1492 1493 1494 1495 1496 1498 1499 1502 1504 1506 1506 1507 1509 1512 1514 1517 1519 1521 1522 1524 1526 1527 1528 1529 1531 1532 1533 1533 1534 1534 1534 1535 1535 1535 1535 1535 1535 1534 1534 1535 1535 1534 1533 1533 1532 1531 1530 1529 1528 1526 1525 1524 1524 1522 1521 1520 1518 1517 1515 1514 1513 1512 1511 1509 1508 1506 1505 1504 1503 1501 1500 1498 1497 1495 1493 1492 1491 1490 1488 1486 1485 1483
1484 1487 1490 1491 1492 1494 1495 1496 1497 1499 1501 1504 1507 1508 1509 1512 1514 1517 1519 1522 1523 1525 1526 1527 1528 1529 1530 1531 1532 1533 1534 1534 1534 1535 1536 1536 1536 1536 1535 1535 1534 1534 1534 1534 1534 1533 1532 1532 1531 1529 1528 1527 1526 1525 1524 1522 1521 1519 1518 1517 1515 1514 1513 1512 1511 1509 1508 1506 1505 1503 1502 1500 1499 1497 1496 1495 1493 1491 1489 1488 1486 1485 1483 1482 1480
1486 1488 1491 1492 1493 1495 1496 1496 1498 1499 1501 1505 1509 1512 1514 1516 1518 1520 1522 1524 1526 1527 1528 1528 1529 1530 1531 1532 1533 1534 1534 1535 1535 1535 1536 1536 1536 1535 1535 1535 1535 1535 1534 1534 1534 1533 1532 1531 1529 1528 1527 1526 1525 1523 1522 1521 1519 1518 1516 1514 1513 1512 1511 1510 1509 1507 1506 1504 1503 1501 1499 1498 1496 1495 1493 1492 1490 1489 1486 1485 1483 1481 1479 1478 1476
1487 1490 1492 1494 1495 1497 1499 1500 1500 1501 1504 1508 1512 1515 1517 1519 1520 1522 1524 1526 1527 1528 1529 1529 1530 1531 1532 1532 1533 1534 1535 1536 1536 1536 1536 1536 1536 1535 1535 1535 1535 1535 1534 1533 1533 1532 1531 1529 1528 1527 1526 1524 1523 1522 1520 1519 1517 1515 1513 1512 1511 1510 1508 1507 1506 1504 1503 1501 1500 1498 1496 1494 1493 1491 1490 1488 1487 1485 1483 1482 1480 1478 1476 1474 1473
1488 1491 1494 1495 1497 1500 1503 1505 1505 1506 1508 1512 1515 1517 1519 1520 1522 1523 1525 1526 1527 1528 1529 1530 1531 1531 1532 1533 1534 1535 1536 1536 1536 1536 1536 1536 1536 1536 1536 1535 1534 1533 1533 1532 1532 1531 1529 1528 1527 1526 1524 1523 1521 1519 1518 1516 1515 1513 1511 1510 1508 1507 1505 1504 1502 1501 1499 1498 1496 1494 1493 1491 1489 1487 1486 1484 1482 1481 1479 1478 1476 1475 1473 1471 1469
1490 1492 1495 1498 1500 1503 1506 1508 1509 1511 1512 1515 1517 1519 1520 1522 1523 1524 1526 1527 1528 1529 1529 1530 1531 1532 1533 1534 1535 1535 1536 1537 1537 1537 1537 1537 1536 1536 1536 1534 1533 1532 1532 1531 1531 1530 1528 1527 1526 1525 1523 1521 1519 1517 1516 1514 1513 1511 1509 1508 1506 1504 1502 1501 1499 1497 1496 1494 1492 1490 1489 1487 1485 1483 1481 1479 1477 1476 1474 1473 1472 1470 1469 1467 1466
1495 1496 1498 1502 1504 1506 1508 1511 1513 1514 1516 1517 1519 1520 1522 1523 1524 1526 1526 1527 1528 1529 1530 1531 1532 1533 1534 1535 1536 1536 1536 1537 1537 1537 1537 1537 1536 1535 1535 1534 1533 1532 1532 1531 1530 1529 1528 1527 1526 1524 1521 1518 1517 1516 1514 1512 1511 1509 1506 1505 1503 1501 1499 1497 1495 1493 1491 1489 1487 1485 1483 1481 1479 1477 1475 1474 1472 1471 1469 1468 1467 1466 1465 1463 1462
1499 1500 1501 1504 1506 1508 1510 1513 1515 1516 1518 1519 1520 1522 1523 1524 1525 1526 1527 1528 1529 1530 1532 1533 1534 1534 1535 1535 1536 1536 1536 1536 1536 1537 1536 1536 1535 1535 1534 1533 1532 1531 1531 1529 1529 1528 1527 1526 1524 1521 1518 1516 1515 1513 1511 1510 1508 1506 1504 1501 1499 1497 1495 1493 1491 1489 1486 1484 1482 1480 1477 1475 1473 1472 1470 1469 1467 1466 1465 1464 1463 1462 1461 1460 1459